EW4971 Weather Reports


time (UTC)temp
C
wind
direction
speed
KPH
gust
KPH
rain 1hr
cm
rain 24hr
cm
rain mn
cm
humidity
%
barometer
mb
20260505171535 -17 202 0.0 0.0 0.00 0.00 0.00 1015.8
20260505170034 -17 168 0.0 0.0 0.00 0.00 0.00 1015.9
20260505164524 -17 251 0.0 0.0 0.00 0.00 0.00 1015.6
20260505163021 -17 266 0.0 0.0 0.00 0.00 0.00 1015.5
20260505161515 -17 268 0.0 0.0 0.00 0.00 0.00 1015.6
20260505153008 -17 17 0.0 0.0 0.00 0.00 0.00 1015.5
20260505151503 -17 355 0.0 0.0 0.00 0.00 0.00 1015.3
20260505124521 -17 5 0.0 0.0 0.00 0.00 0.00 1014.5
20260505123017 -17 5 0.0 0.0 0.00 0.00 0.00 1014.6
20260505121513 -17 5 0.0 0.0 0.00 0.00 0.00 1014.7
20260505120009 -17 5 0.0 0.0 0.00 0.00 0.00 1014.7
20260505114503 -17 5 0.0 0.0 0.00 0.00 0.00 1014.5
20260505113059 -17 5 0.0 0.0 0.00 0.00 0.00 1014.6
20260505111555 -17 5 0.0 0.0 0.00 0.00 0.00 1014.5
20260505101542 -17 5 0.0 0.0 0.00 0.00 0.00 1014.4
20260505100033 -17 5 0.0 0.0 0.00 0.00 0.00 1014.6
20260505094530 -17 355 0.0 0.0 0.00 0.00 0.00 1014.7
20260505093023 -17 355 0.0 0.0 0.00 0.00 0.00 1014.6
20260505091519 -17 360 0.0 0.0 0.00 0.00 0.00 1014.8
20260505090014 -17 5 0.0 0.0 0.00 0.00 0.00 1015.0
20260505084512 -17 5 0.0 0.0 0.00 0.00 0.00 1014.9
20260505083005 -17 5 0.0 0.0 0.00 0.00 0.00 1015.0
20260505081502 -17 5 0.0 0.0 0.00 0.00 0.00 1015.1
20260505080106 -17 9 0.0 0.0 0.00 0.00 0.00 1015.2
20260505074552 -17 13 0.0 0.0 0.00 0.00 0.00 1015.2
20260505073052 -17 13 0.0 0.0 0.00 0.00 0.00 1015.0
20260505071544 -17 53 0.0 0.0 0.00 0.00 0.00 1015.0
20260505070049 -17 53 0.0 0.0 0.00 0.00 0.00 1015.0
20260505064539 -17 53 0.0 0.0 0.00 0.00 0.00 1014.9
20260505063038 -17 74 0.0 0.0 0.00 0.00 0.00 1014.8
20260505061637 -17 79 0.0 0.0 0.00 0.00 0.00 1014.8
20260505060037 -17 101 0.0 0.0 0.00 0.00 0.00 1014.9
20260505054539 -17 74 0.0 0.0 0.00 0.00 0.00 1015.0
20260505053036 -17 74 0.0 0.0 0.00 0.00 0.00 1015.1
20260505051536 -17 71 0.0 0.0 0.00 0.00 0.00 1015.2
20260505041549 -17 238 0.0 0.0 0.00 0.00 0.00 1014.7
20260505040042 -17 238 0.0 0.0 0.00 0.00 0.00 1014.4
20260505034635 -17 251 0.0 0.0 0.00 0.00 0.00 1014.2
20260505033033 -17 257 0.0 0.0 0.00 0.00 0.00 1014.0
20260505031540 -17 247 0.0 0.0 0.00 0.00 0.00 1014.1
20260505030032 -17 220 0.0 0.0 0.00 0.00 0.00 1014.2
20260505024533 -17 223 0.0 0.0 0.00 0.00 0.00 1014.1
20260505023030 -17 269 0.0 0.0 0.00 0.00 0.00 1013.9
20260505021533 -17 254 0.0 0.0 0.00 0.00 0.00 1014.0
20260505020026 -17 233 0.0 0.0 0.00 0.00 0.00 1013.9
20260505014526 -17 254 0.0 0.0 0.00 0.00 0.00 1014.0
20260505013016 -17 235 0.0 0.0 0.00 0.00 0.00 1014.1
20260505011512 -17 306 0.0 0.0 0.00 0.00 0.00 1014.3
20260505010009 -17 0.0 0.0 0.00 0.00 0.00 1014.4
20260505004502 -17 0.0 0.0 0.00 0.00 0.00 1014.5
20260505003059 -17 0.0 0.0 0.00 0.00 0.00 1014.5
20260505001557 -17 0.0 0.0 0.00 0.00 0.00 1014.5
20260505000106 -17 0.0 0.0 0.00 0.00 0.00 1014.3
20260504234549 -17 0.0 0.0 0.00 0.00 0.00 1014.4
20260504233103 -17 0.0 0.0 0.00 0.00 0.00 1014.5
20260504231544 -17 0.0 0.0 0.00 0.00 0.00 1014.5
20260504230041 -17 0.0 0.0 0.00 0.00 0.00 1014.6
20260504224539 -17 0.0 0.0 0.00 0.00 0.00 1014.6
20260504223052 -17 0.0 0.0 0.00 0.00 0.00 1014.7
20260504221528 -17 0.0 0.0 0.00 0.00 0.00 1014.9
20260504220024 -17 0.0 0.0 0.00 0.00 0.00 1015.0
20260504214524 -17 209 0.0 0.0 0.00 0.00 0.00 1015.1
20260504213032 -17 288 0.0 0.0 0.00 0.00 0.00 1015.2
20260504211524 -17 311 0.0 0.0 0.00 0.00 0.00 1015.5
20260504210018 -17 250 0.0 0.0 0.00 0.00 0.00 1015.5
20260504204533 -17 253 0.0 0.0 0.00 0.00 0.00 1015.4
20260504203021 -17 200 0.0 0.0 0.00 0.00 0.00 1015.6
20260504201515 -17 257 0.0 0.0 0.00 0.00 0.00 1015.7
20260504200011 -17 265 0.0 0.0 0.00 0.00 0.00 1015.8
20260504194506 -17 252 0.0 0.0 0.00 0.00 0.00 1015.8
20260504193001 -17 223 0.0 0.0 0.00 0.00 0.00 1015.8
20260504191601 -17 209 0.0 0.0 0.00 0.00 0.00 1015.9
20260504190053 -17 262 0.0 0.0 0.00 0.00 0.00 1015.8
20260504184548 -17 184 0.0 0.0 0.00 0.00 0.00 1015.9
20260504183043 -17 230 0.0 0.0 0.00 0.00 0.00 1016.0
20260504181544 -17 216 0.0 0.0 0.00 0.00 0.00 1015.9
20260504180034 -17 173 0.0 0.0 0.00 0.00 0.00 1015.8
20260504174529 -17 146 0.0 0.0 0.00 0.00 0.00 1015.5
20260504173028 -17 196 0.0 0.0 0.00 0.00 0.00 1015.5